Home   Weather   Stafford   Past weeks

Flag for United Kingdom Past Weather in Stafford, England, United Kingdom — Yesterday and Last 2 Weeks

Now
46 °F

Passing clouds.


Feels Like: 44 °F
Forecast: 40 / 55 °F
Wind: 5 mph from Northwest

Location: Shawbury

Current Time: Apr 28, 2017 at 11:06:57 pm

Latest Report: Apr 28, 2017 at 9:50 pm


Visibility: N/A

Pressure: 30.01 "Hg

Humidity: 87%

Dew Point: 43 °F

Location of StaffordLocation

Past Weather in Stafford — Graph

°F

Stafford Temperature Yesterday

Maximum temperature yesterday: 50 °F (at 2:50 pm)
Minimum temperature yesterday: 30 °F (at 3:50 am)
Average temperature yesterday: 43 °F

High & Low Weather Summary for the Past Weeks

 TemperatureHumidityPressure
High59 °F (Apr 23, 3:50 pm)100% (Apr 17, 5:50 am)30.60 "Hg (Apr 17, 5:50 am)
Low30 °F (Apr 27, 3:50 am)40% (Apr 26, 3:50 pm)29.92 "Hg (Apr 14, 3:50 pm)
Average47 °F75%30.22 "Hg
* Reported Apr 13 9:50 pm — Apr 28 9:50 pm, Stafford, Weather by CustomWeather, © 2017

Note: Actual official high and low records may vary slightly from our data, if they occured in-between our weather recording intervals... More about our weather records

Advertising

Stafford Weather History for the Previous 24 Hours

Scroll right to see more
 ConditionsComfort  
Time TempWeatherWind HumidityBarometerVisibility
9:50 pm
Fri, Apr 28
46 °FPassing clouds.5 mph87%30.01 "HgN/A
8:50 pm48 °FPassing clouds.6 mph82%29.98 "HgN/A
7:50 pm48 °FPartly sunny.7 mph87%29.98 "HgN/A
6:50 pm50 °FBroken clouds.5 mph82%29.98 "HgN/A
5:50 pm50 °FPartly sunny.6 mph82%29.98 "HgN/A
4:50 pm52 °FPartly sunny.5 mph77%30.01 "HgN/A
3:50 pm52 °FPartly sunny.5 mph72%30.01 "HgN/A
2:50 pm52 °FPartly sunny.7 mph72%30.01 "HgN/A
1:50 pm52 °FPartly sunny.2 mph67%30.01 "HgN/A
12:50 pm52 °FPartly sunny.5 mph67%30.01 "HgN/A
11:50 am50 °FLight rain. Broken clouds.3 mph67%30.04 "HgN/A
10:50 am50 °FLight rain. Broken clouds.1 mph82%30.04 "HgN/A
9:50 am46 °FMixture of precip. Partly sunny.3 mph93%30.04 "HgN/A
8:50 am45 °FLight rain. Partly sunny.6 mph93%30.04 "HgN/A
7:50 am46 °FPartly sunny.7 mph87%30.04 "HgN/A
6:50 am45 °FLight rain. Broken clouds.8 mph87%30.04 "HgN/A
5:50 am45 °FPartly sunny.6 mph93%30.01 "HgN/A
4:50 am45 °FPartly cloudy.7 mph93%30.04 "HgN/A
3:50 am45 °FPassing clouds.5 mph87%30.04 "HgN/A
2:50 am46 °FOvercast.7 mph87%30.04 "HgN/A
1:50 am46 °FOvercast.6 mph87%30.04 "HgN/A
12:50 am46 °FPartly cloudy.6 mph87%30.04 "HgN/A
11:50 pm
Thu, Apr 27
46 °FPassing clouds.8 mph87%30.04 "HgN/A
Weather by CustomWeather, © 2017

See weather overviewHow to use our weather pages